INSAT-4B

Last updated on Aug. 7, 2020, 5:35 a.m. UTC

1 30793U 07007A   20219.74855079 -.00000201  00000-0  00000-0 0  9999
2 30793   0.5590  97.3076 0003253 114.0083  99.4032  1.00272718 20743
UTC
Height (km)
Latitude
Longitude
Inclination
Orbital Period
UTC large
Height (km)
Speed (km/s)
/
Latitude / Longitude
Inclination (degrees)
Orbital Period (minutes)
Azimuth
Elevation
Range (km)
Doppler Factor
iOS Compass Heading
iOS Angle

Next 30 passes for location: Hong Kong

Rise time Rise Azimuth (degrees) Set time Set Azimuth (degrees) Duration Max altitude (degrees)

No matching passes for this satellites